Regional Weather Roundup
Issued by NWS Cleveland, OH

Home | Current Version | Previous Version | Text Only | Print | Product List | Glossary Off
Versions: 1 2 3 4 5 6 7 8 9 10 11 12 13 14 15 16 17 18 19 20 21 22 23 24 25 26 27 28 29 30 31 32 33 34 35 36 37 38 39 40 41 42 43 44 45 46 47 48 49 50

000
ASUS41 KCLE 290810
RWRCLE
OHIO REGIONAL WEATHER ROUNDUP
NATIONAL WEATHER SERVICE WILMINGTON, OH
400 AM EDT THU SEP 29 2016

NOTE: "FAIR" INDICATES FEW OR NO CLOUDS BELOW 12,000 FEET WITH NO
SIGNIFICANT WEATHER AND/OR OBSTRUCTIONS TO VISIBILITY.

OHZ001>008-015>018-024>027-034-035-043-044-290900-
   NORTHWEST OHIO

CITY           SKY/WX    TMP DP  RH WIND       PRES   REMARKS
DEFIANCE       CLOUDY    57  53  86 E7        29.99R
FINDLAY        CLOUDY    57  53  86 E7        29.97S
TOLEDO EXPRESS CLOUDY    56  56 100 CALM      29.99R
TOLEDO EXEC    CLOUDY    58  57  97 CALM      30.00R
LIMA           CLOUDY    55  55 100 E6        29.97S
$$

OHZ009>014-019>023-028>033-038-089-290900-
   NORTHEAST OHIO

CITY           SKY/WX    TMP DP  RH WIND       PRES   REMARKS
CLE-HOPKINS    CLOUDY    58  54  86 SW7       30.01R
CLE-LAKEFRONT  MOCLDY    61  58  90 E5        29.98S
CUY CO. ARPT   NOT AVBL
LORAIN-ELYRIA  CLOUDY    55  53  93 CALM      29.99R
ASHTABULA      CLOUDY    64  59  83 E12       30.03S
AKRON-CANTON   CLOUDY    56  53  90 SE7       30.01R
WOOSTER        CLOUDY    54  53  97 CALM      30.00R
MANSFIELD      FAIR      53  53 100 CALM      29.99S
YOUNGSTOWN     LGT RAIN  63  58  83 E7        30.01R
$$

OHZ042-051>053-060>062-070>072-077>081-290900-
  SOUTHWEST OHIO

CITY           SKY/WX    TMP DP  RH WIND       PRES   REMARKS
CINC-COVINGTON CLOUDY    52  52 100 CALM      29.97R FOG
CINC-LUNKEN    CLOUDY    53  53 100 CALM      29.99R
HAMILTON       FAIR      51  50  96 CALM      29.98S FOG
DAYTON         FOG       51  51 100 NW5       29.98R VSB 1/4
WRIGHT-PAT AFB NOT AVBL
DAYTON GENERAL CLOUDY    52  50  93 NW5       29.96S FOG
WILMINGTON     FOG       52  52 100 CALM      29.97S VSB 1/2
$$

OHZ036-037-039>041-045>050-054>059-063>069-073>076-082>088-290900-
  CENTRAL AND SOUTHEAST OHIO

CITY           SKY/WX    TMP DP  RH WIND       PRES   REMARKS
COLUMBUS       CLOUDY    57  57 100 SE6       29.97R
OSU AIRPORT    CLOUDY    57  56  96 CALM      29.97R
BOLTON FIELD   CLOUDY    55  55  99 SW3       29.98S
RICKENBACK AFB CLOUDY    56  56 100 CALM      29.96S
NEWARK         CLOUDY    57  55  93 CALM      29.97F
MARION         CLOUDY    56  53  90 E6        29.98S
LANCASTER      CLOUDY    57  56  96 S3        29.96F
ZANESVILLE     FAIR      55  54  96 CALM      29.98F
NEW PHILLY     CLOUDY    56  56 100 SE5       30.00R
$$




USA.gov is the U.S. government's official web portal to all federal, state and local government web resources and services.